• In Latvia
  • List of Countries
  • For 7 days
  • Water Temperature
  • Satellite Maps
  • Weather Map
  • Weather Widgets
  • user-avatar
    Login

    Hourly Weather Samos

    Today, 15 December, Friday

    Time Temperature Precipitation Wind Pressure Humidity
    00:00 +9°C° 0 mm 3 mps 721 mmHg 94%
    01:00 +9°C° 0 mm 3 mps 721 mmHg 93%
    02:00 +9°C° 0 mm 3 mps 721 mmHg 93%
    03:00 +9°C° 0 mm 3 mps 721 mmHg 92%
    04:00 +9°C° 0 mm 3 mps 721 mmHg 92%
    05:00 +8°C° 0 mm 3 mps 721 mmHg 92%
    06:00 +8°C° 0 mm 3 mps 721 mmHg 91%
    07:00 +9°C° 0 mm 3 mps 721 mmHg 91%
    08:00 +9°C° 0 mm 3 mps 721 mmHg 90%
    09:00 +10°C° 0 mm 4 mps 722 mmHg 83%
    10:00 +12°C° 0 mm 4 mps 722 mmHg 76%
    11:00 +14°C° 0 mm 4 mps 722 mmHg 70%
    12:00 +14°C° 0 mm 5 mps 722 mmHg 69%
    13:00 +15°C° 0 mm 5 mps 722 mmHg 68%
    14:00 +15°C° 0 mm 5 mps 721 mmHg 67%
    15:00 +14°C° 0 mm 6 mps 721 mmHg 73%
    16:00 +13°C° 0 mm 6 mps 721 mmHg 79%
    17:00 +11°C° 0 mm 6 mps 721 mmHg 85%
    18:00 +11°C° 0 mm 6 mps 721 mmHg 86%
    19:00 +11°C° 0 mm 7 mps 722 mmHg 87%
    20:00 +11°C° 0 mm 7 mps 722 mmHg 89%
    21:00 +11°C° 0.1 mm 7 mps 722 mmHg 88%
    22:00 +11°C° 0.1 mm 7 mps 722 mmHg 87%
    23:00 +11°C° 0.1 mm 8 mps 722 mmHg 86%

    Tomorrow, 16 December, Saturday

    Time Temperature Precipitation Wind Pressure Humidity
    00:00 +10°C° 0.1 mm 8 mps 722 mmHg 87%
    01:00 +10°C° 0.1 mm 8 mps 722 mmHg 87%
    02:00 +10°C° 0.1 mm 8 mps 722 mmHg 88%
    03:00 +10°C° 0.1 mm 8 mps 722 mmHg 88%
    04:00 +9°C° 0.1 mm 7 mps 722 mmHg 88%
    05:00 +9°C° 0.1 mm 7 mps 722 mmHg 88%
    06:00 +9°C° 0.1 mm 7 mps 722 mmHg 88%
    07:00 +9°C° 0.1 mm 7 mps 722 mmHg 88%
    08:00 +9°C° 0.1 mm 6 mps 722 mmHg 88%
    09:00 +11°C° 0 mm 7 mps 722 mmHg 82%
    10:00 +12°C° 0 mm 7 mps 722 mmHg 76%
    11:00 +15°C° 0 mm 7 mps 722 mmHg 71%
    12:00 +15°C° 0 mm 8 mps 722 mmHg 68%
    13:00 +16°C° 0 mm 8 mps 721 mmHg 66%
    14:00 +16°C° 0 mm 8 mps 721 mmHg 63%
    15:00 +15°C° 0 mm 8 mps 720 mmHg 69%
    16:00 +13°C° 0 mm 8 mps 720 mmHg 75%
    17:00 +12°C° 0 mm 8 mps 720 mmHg 81%
    18:00 +12°C° 0.5 mm 9 mps 720 mmHg 83%
    19:00 +11°C° 0.5 mm 9 mps 720 mmHg 84%
    20:00 +11°C° 0.5 mm 10 mps 720 mmHg 86%
    21:00 +11°C° 1.6 mm 10 mps 720 mmHg 87%
    22:00 +11°C° 1.6 mm 9 mps 720 mmHg 88%
    23:00 +11°C° 1.6 mm 9 mps 720 mmHg 90%

    Day after tomorrow, 17 December, Sunday

    Time Temperature Precipitation Wind Pressure Humidity
    00:00 +11°C° 0.1 mm 10 mps 720 mmHg 90%
    01:00 +9°C° 0.1 mm 11 mps 720 mmHg 90%
    02:00 +9°C° 0.1 mm 11 mps 719 mmHg 91%
    03:00 +9°C° 0.2 mm 11 mps 719 mmHg 90%
    04:00 +11°C° 0.2 mm 11 mps 718 mmHg 89%
    05:00 +11°C° 0.2 mm 11 mps 718 mmHg 87%
    06:00 +11°C° 0.3 mm 11 mps 718 mmHg 87%
    07:00 +11°C° 0.3 mm 11 mps 718 mmHg 87%
    08:00 +11°C° 0.3 mm 11 mps 718 mmHg 87%
    09:00 +12°C° 0.4 mm 11 mps 718 mmHg 82%
    10:00 +13°C° 0.4 mm 11 mps 719 mmHg 76%
    11:00 +14°C° 0.4 mm 11 mps 719 mmHg 70%
    12:00 +14°C° 0.7 mm 10 mps 719 mmHg 72%
    13:00 +15°C° 0.7 mm 9 mps 719 mmHg 75%
    14:00 +13°C° 0.7 mm 8 mps 719 mmHg 77%
    15:00 +12°C° 0.7 mm 7 mps 719 mmHg 81%
    16:00 +13°C° 0.7 mm 5 mps 719 mmHg 84%
    17:00 +12°C° 0.7 mm 4 mps 719 mmHg 88%
    18:00 +11°C° 0.1 mm 3 mps 720 mmHg 89%
    19:00 +11°C° 0.1 mm 3 mps 720 mmHg 90%
    20:00 +10°C° 0.1 mm 2 mps 720 mmHg 91%
    21:00 +10°C° 0.1 mm 2 mps 721 mmHg 91%
    22:00 +10°C° 0.1 mm 2 mps 721 mmHg 91%
    23:00 +10°C° 0.1 mm 2 mps 721 mmHg 91%

    18 December, Monday

    Time Temperature Precipitation Wind Pressure Humidity
    00:00 +10°C° 0.1 mm 2 mps 721 mmHg 91%
    01:00 +9°C° 0.1 mm 2 mps 721 mmHg 91%
    02:00 +9°C° 0.1 mm 2 mps 721 mmHg 91%
    03:00 +9°C° 0.1 mm 2 mps 721 mmHg 91%
    04:00 +9°C° 0.1 mm 3 mps 721 mmHg 90%
    05:00 +9°C° 0.1 mm 3 mps 721 mmHg 89%
    06:00 +9°C° 0 mm 3 mps 722 mmHg 88%
    07:00 +8°C° 0 mm 4 mps 722 mmHg 87%
    08:00 +8°C° 0 mm 4 mps 722 mmHg 86%
    09:00 +9°C° 0.1 mm 5 mps 722 mmHg 78%
    10:00 +10°C° 0.1 mm 5 mps 722 mmHg 71%
    11:00 +12°C° 0.1 mm 5 mps 722 mmHg 63%
    12:00 +11°C° 0.1 mm 6 mps 722 mmHg 63%
    13:00 +11°C° 0.1 mm 6 mps 722 mmHg 62%
    14:00 +11°C° 0.1 mm 6 mps 722 mmHg 62%
    15:00 +9°C° 0.1 mm 6 mps 722 mmHg 67%
    16:00 +8°C° 0.1 mm 6 mps 722 mmHg 72%
    17:00 +7°C° 0.1 mm 6 mps 722 mmHg 78%
    18:00 +7°C° 0 mm 6 mps 723 mmHg 79%
    19:00 +5°C° 0 mm 6 mps 723 mmHg 80%
    20:00 +5°C° 0 mm 5 mps 724 mmHg 82%
    21:00 +5°C° 0 mm 5 mps 724 mmHg 82%
    22:00 +3°C° 0 mm 5 mps 724 mmHg 83%
    23:00 +3°C° 0 mm 5 mps 724 mmHg 84%

    19 December, Tuesday

    Time Temperature Precipitation Wind Pressure Humidity
    00:00 +3°C° 0 mm 5 mps 724 mmHg 85%
    01:00 +2°C° 0 mm 5 mps 725 mmHg 87%
    02:00 +2°C° 0 mm 5 mps 725 mmHg 88%
    03:00 +2°C° 0 mm 5 mps 725 mmHg 89%
    04:00 +1°C° 0 mm 5 mps 725 mmHg 89%
    05:00 +1°C° 0 mm 5 mps 725 mmHg 90%
    06:00 +1°C° 0 mm 5 mps 725 mmHg 90%
    07:00 0°C° 0 mm 5 mps 725 mmHg 89%
    08:00 0°C° 0 mm 5 mps 725 mmHg 89%
    09:00 +2°C° 0 mm 5 mps 726 mmHg 81%
    10:00 +3°C° 0 mm 5 mps 726 mmHg 73%
    11:00 +5°C° 0 mm 5 mps 726 mmHg 65%
    12:00 +6°C° 0 mm 5 mps 726 mmHg 61%
    13:00 +7°C° 0 mm 5 mps 726 mmHg 57%
    14:00 +7°C° 0 mm 5 mps 725 mmHg 53%
    15:00 +6°C° 0 mm 5 mps 725 mmHg 57%
    16:00 +5°C° 0 mm 5 mps 725 mmHg 61%
    17:00 +3°C° 0 mm 5 mps 725 mmHg 65%
    18:00 +3°C° 0 mm 5 mps 725 mmHg 68%
    19:00 +3°C° 0 mm 4 mps 725 mmHg 72%
    20:00 +3°C° 0 mm 4 mps 725 mmHg 75%
    21:00 +1°C° 0 mm 4 mps 725 mmHg 77%
    22:00 +1°C° 0 mm 4 mps 725 mmHg 78%
    23:00 +1°C° 0 mm 4 mps 725 mmHg 80%

    20 December, Wednesday

    Time Temperature Precipitation Wind Pressure Humidity
    00:00 0°C° 0 mm 4 mps 725 mmHg 81%
    01:00 0°C° 0 mm 4 mps 725 mmHg 82%
    02:00 0°C° 0 mm 4 mps 725 mmHg 83%
    03:00 0°C° 0 mm 4 mps 725 mmHg 83%
    04:00 -1°C° 0 mm 4 mps 725 mmHg 84%
    05:00 -1°C° 0 mm 4 mps 724 mmHg 84%
    06:00 -1°C° 0 mm 4 mps 725 mmHg 83%
    07:00 -1°C° 0 mm 4 mps 725 mmHg 82%
    08:00 0°C° 0 mm 4 mps 725 mmHg 82%
    09:00 +1°C° 0 mm 4 mps 725 mmHg 75%
    10:00 +3°C° 0 mm 4 mps 725 mmHg 69%
    11:00 +4°C° 0 mm 4 mps 725 mmHg 63%
    12:00 +5°C° 0 mm 4 mps 725 mmHg 59%
    13:00 +6°C° 0 mm 4 mps 725 mmHg 56%
    14:00 +6°C° 0 mm 4 mps 724 mmHg 52%
    15:00 +6°C° 0 mm 5 mps 724 mmHg 55%
    16:00 +5°C° 0 mm 5 mps 724 mmHg 59%
    17:00 +3°C° 0 mm 5 mps 724 mmHg 62%
    18:00 +3°C° 0 mm 5 mps 724 mmHg 65%
    19:00 +2°C° 0 mm 5 mps 725 mmHg 68%
    20:00 +2°C° 0 mm 5 mps 725 mmHg 71%
    21:00 +1°C° 0 mm 5 mps 725 mmHg 72%
    22:00 +1°C° 0 mm 5 mps 725 mmHg 74%
    23:00 +1°C° 0 mm 5 mps 725 mmHg 75%
    Show more